| time (UTC) | temp F | wind direction | speed MPH | gust MPH | rain 1hr in | rain 24hr in | rain mn in | humidity % | barometer mb |
| 20260503013034 | 64 | 312 | 5.0 | 10.0 | 0.00 | 0.00 | 0.00 | 1 | 1009.9 |
| 20260503011522 | 66 | 230 | 5.0 | 10.0 | 0.00 | 0.00 | 0.00 | 1 | 1009.8 |
| 20260503010018 | 67 | 254 | 4.0 | 9.0 | 0.00 | 0.00 | 0.00 | 1 | 1009.8 |
| 20260503004514 | 69 | 223 | 5.0 | 11.0 | 0.00 | 0.00 | 0.00 | 1 | 1009.7 |
| 20260503003010 | 70 | 277 | 4.0 | 11.0 | 0.00 | 0.00 | 0.00 | 1 | 1009.7 |
| 20260503001504 | 71 | 257 | 5.0 | 11.0 | 0.00 | 0.00 | 0.00 | 1 | 1009.7 |
| 20260503000112 | 72 | 214 | 2.0 | 11.0 | 0.00 | 0.00 | 0.00 | 1 | 1009.6 |
| 20260502234559 | 73 | 208 | 5.0 | 10.0 | 0.00 | 0.00 | 0.00 | 1 | 1009.7 |
| 20260502233050 | 73 | 210 | 4.0 | 10.0 | 0.00 | 0.00 | 0.00 | 1 | 1009.6 |
| 20260502231609 | 73 | 266 | 5.0 | 13.0 | 0.00 | 0.00 | 0.00 | 1 | 1009.7 |
| 20260502230041 | 73 | 242 | 5.0 | 13.0 | 0.00 | 0.00 | 0.00 | 1 | 1009.7 |
| 20260502224537 | 72 | 174 | 5.0 | 11.0 | 0.00 | 0.00 | 0.00 | 1 | 1010.2 |
| 20260502223033 | 74 | 261 | 8.0 | 14.0 | 0.00 | 0.00 | 0.00 | 1 | 1010.4 |
| 20260502221534 | 74 | 245 | 5.0 | 13.0 | 0.00 | 0.00 | 0.00 | 1 | 1010.7 |
| 20260502220024 | 74 | 258 | 5.0 | 12.0 | 0.00 | 0.00 | 0.00 | 1 | 1010.6 |
| 20260502214520 | 74 | 279 | 4.0 | 13.0 | 0.00 | 0.00 | 0.00 | 1 | 1010.9 |
| 20260502213015 | 74 | 282 | 6.0 | 13.0 | 0.00 | 0.00 | 0.00 | 1 | 1011.2 |
| 20260502211511 | 74 | 294 | 8.0 | 15.0 | 0.00 | 0.00 | 0.00 | 1 | 1011.6 |
| 20260502210006 | 74 | 270 | 7.0 | 12.0 | 0.00 | 0.00 | 0.00 | 1 | 1011.2 |
| 20260502204502 | 75 | 256 | 8.0 | 15.0 | 0.00 | 0.00 | 0.00 | 1 | 1011.2 |
| 20260502203058 | 75 | 277 | 4.0 | 9.0 | 0.00 | 0.00 | 0.00 | 1 | 1011.2 |
| 20260502201556 | 73 | 212 | 4.0 | 12.0 | 0.00 | 0.00 | 0.00 | 1 | 1010.9 |
| 20260502200049 | 74 | 204 | 5.0 | 11.0 | 0.00 | 0.00 | 0.00 | 1 | 1011.6 |
| 20260502194551 | 73 | 246 | 5.0 | 10.0 | 0.00 | 0.00 | 0.00 | 1 | 1011.5 |
| 20260502193054 | 73 | 17 | 2.0 | 5.0 | 0.00 | 0.00 | 0.00 | 1 | 1011.5 |
| 20260502191540 | 72 | 286 | 4.0 | 11.0 | 0.00 | 0.00 | 0.00 | 1 | 1012.0 |
| 20260502190031 | 70 | 293 | 3.0 | 10.0 | 0.00 | 0.00 | 0.00 | 1 | 1012.2 |
| 20260502184527 | 69 | 55 | 3.0 | 6.0 | 0.00 | 0.00 | 0.00 | 1 | 1012.3 |
| 20260502183023 | 66 | 188 | 3.0 | 6.0 | 0.00 | 0.00 | 0.00 | 1 | 1012.9 |
| 20260502181517 | 63 | 54 | 1.0 | 6.0 | 0.00 | 0.00 | 0.00 | 1 | 1013.0 |
| 20260502163050 | 60 | 52 | 0.0 | 4.0 | 0.00 | 0.00 | 0.00 | 1 | 1013.8 |
| 20260502161603 | 59 | 102 | 0.0 | 2.0 | 0.00 | 0.00 | 0.00 | 1 | 1013.9 |
| 20260502151527 | 58 | 66 | 1.0 | 4.0 | 0.00 | 0.00 | 0.00 | 1 | 1013.6 |
| 20260502130149 | 58 | 75 | 0.0 | 0.0 | 0.00 | 0.00 | 0.00 | 1 | 1012.9 |
| 20260502123111 | 58 | 76 | 0.0 | 0.0 | 0.00 | 0.00 | 0.00 | 1 | 1012.9 |
| 20260502121538 | 58 | 76 | 0.0 | 1.0 | 0.00 | 0.00 | 0.00 | 1 | 1012.6 |
| 20260502114530 | 57 | 342 | 0.0 | 0.0 | 0.00 | 0.00 | 0.00 | 1 | 1012.6 |
| 20260502113025 | 57 | 342 | 0.0 | 2.0 | 0.00 | 0.00 | 0.00 | 1 | 1012.5 |
| 20260502111522 | 57 | 342 | 0.0 | 2.0 | 0.00 | 0.00 | 0.00 | 1 | 1012.5 |
| 20260502110016 | 56 | 341 | 0.0 | 2.0 | 0.00 | 0.00 | 0.00 | 1 | 1012.5 |
| 20260502104512 | 56 | 341 | 2.0 | 4.0 | 0.00 | 0.00 | 0.00 | 1 | 1012.4 |
| 20260502103011 | 56 | 344 | 1.0 | 4.0 | 0.00 | 0.00 | 0.00 | 1 | 1012.2 |
| 20260502101503 | 55 | 343 | 0.0 | 4.0 | 0.00 | 0.00 | 0.00 | 1 | 1012.2 |
| 20260502071510 | 55 | 330 | 2.0 | 4.0 | 0.00 | 0.00 | 0.00 | 1 | 1013.2 |
| 20260502070005 | 56 | 323 | 1.0 | 4.0 | 0.00 | 0.00 | 0.00 | 1 | 1013.0 |
| 20260502064505 | 55 | 335 | 1.0 | 4.0 | 0.00 | 0.00 | 0.00 | 1 | 1012.9 |
| 20260502063004 | 54 | 302 | 4.0 | 7.0 | 0.00 | 0.00 | 0.00 | 1 | 1013.0 |
| 20260502061503 | 54 | 323 | 2.0 | 4.0 | 0.00 | 0.00 | 0.00 | 1 | 1013.1 |
| 20260502060003 | 55 | 297 | 0.0 | 3.0 | 0.00 | 0.00 | 0.00 | 1 | 1013.2 |
| 20260502054504 | 55 | 294 | 1.0 | 3.0 | 0.00 | 0.00 | 0.00 | 1 | 1013.2 |
| 20260502053002 | 55 | 294 | 1.0 | 3.0 | 0.00 | 0.00 | 0.00 | 1 | 1013.1 |
| 20260502051601 | 55 | 271 | 0.0 | 3.0 | 0.00 | 0.00 | 0.00 | 1 | 1013.0 |
| 20260502050054 | 56 | 269 | 0.0 | 3.0 | 0.00 | 0.00 | 0.00 | 1 | 1013.0 |
| 20260502044550 | 56 | 269 | 0.0 | 2.0 | 0.00 | 0.00 | 0.00 | 1 | 1013.0 |
| 20260502043050 | 57 | 269 | 0.0 | 3.0 | 0.00 | 0.00 | 0.00 | 1 | 1012.8 |
| 20260502041546 | 57 | 268 | 0.0 | 2.0 | 0.00 | 0.00 | 0.00 | 1 | 1012.8 |
| 20260502040035 | 57 | 268 | 0.0 | 2.0 | 0.00 | 0.00 | 0.00 | 1 | 1012.7 |
| 20260502034532 | 57 | 269 | 0.0 | 0.0 | 0.00 | 0.00 | 0.00 | 1 | 1012.6 |
| 20260502033034 | 58 | 269 | 0.0 | 2.0 | 0.00 | 0.00 | 0.00 | 1 | 1012.6 |
| 20260502031522 | 58 | 269 | 1.0 | 4.0 | 0.00 | 0.00 | 0.00 | 1 | 1012.3 |
| 20260502030025 | 58 | 267 | 2.0 | 7.0 | 0.00 | 0.00 | 0.00 | 1 | 1012.1 |
| 20260502024517 | 59 | 228 | 3.0 | 9.0 | 0.00 | 0.00 | 0.00 | 1 | 1012.0 |
| 20260502023014 | 60 | 265 | 4.0 | 8.0 | 0.00 | 0.00 | 0.00 | 1 | 1011.9 |
| 20260502021509 | 62 | 237 | 5.0 | 9.0 | 0.00 | 0.00 | 0.00 | 1 | 1011.7 |
| 20260502020005 | 64 | 254 | 3.0 | 10.0 | 0.00 | 0.00 | 0.00 | 1 | 1011.5 |
| 20260502014600 | 66 | 290 | 3.0 | 11.0 | 0.00 | 0.00 | 0.00 | 1 | 1011.4 |